TimeEDT,TemperatureF,Dew PointF,Humidity,Sea Level PressureIn,VisibilityMPH,Wind Direction,Wind SpeedMPH,Gust SpeedMPH,PrecipitationIn,Events,Conditions,WindDirDegrees,DateUTC
12:53 AM,78.1,73.9,87,30.06,7.0,ESE,5.8,-,0.00,Rain,Light Rain,120,2013-04-22 04:53:00
1:24 AM,78.8,73.4,83,30.05,10.0,ESE,3.5,-,0.02,Rain-Thunderstorm,Light Thunderstorms and Rain,120,2013-04-22 05:24:00
1:48 AM,73.4,64.4,73,30.04,10.0,South,15.0,20.7,0.03,Rain,Light Rain,190,2013-04-22 05:48:00
1:53 AM,73.0,64.0,73,30.03,10.0,South,13.8,20.7,0.03,Rain,Light Rain,180,2013-04-22 05:53:00
2:35 AM,73.4,66.2,78,30.00,10.0,ENE,5.8,-,0.03,Rain,Light Rain,70,2013-04-22 06:35:00
2:53 AM,73.0,66.0,79,29.99,8.0,NE,4.6,-,0.03,,Mostly Cloudy,40,2013-04-22 06:53:00
3:04 AM,73.4,68.0,83,30.00,10.0,NE,5.8,-,N/A,,Scattered Clouds,50,2013-04-22 07:04:00
3:16 AM,73.4,69.8,88,30.00,10.0,ENE,9.2,-,N/A,,Mostly Cloudy,70,2013-04-22 07:16:00
3:32 AM,73.4,69.8,88,30.00,10.0,Variable,4.6,-,N/A,,Mostly Cloudy,0,2013-04-22 07:32:00
3:53 AM,75.0,71.1,87,29.99,10.0,ENE,5.8,-,N/A,,Scattered Clouds,60,2013-04-22 07:53:00
4:53 AM,73.9,71.1,91,29.99,7.0,NE,5.8,-,0.01,Rain,Light Rain,50,2013-04-22 08:53:00
5:53 AM,73.9,71.1,91,29.97,9.0,ENE,3.5,-,0.01,,Clear,60,2013-04-22 09:53:00
6:53 AM,75.0,72.0,90,29.96,10.0,East,3.5,-,N/A,,Scattered Clouds,100,2013-04-22 10:53:00
7:53 AM,75.9,72.0,87,29.99,10.0,East,6.9,-,N/A,,Scattered Clouds,80,2013-04-22 11:53:00
8:53 AM,78.1,72.0,81,30.01,10.0,ENE,5.8,-,N/A,,Mostly Cloudy,70,2013-04-22 12:53:00
9:53 AM,79.0,71.1,77,30.02,10.0,ENE,6.9,-,N/A,,Mostly Cloudy,70,2013-04-22 13:53:00
10:53 AM,82.0,72.0,71,30.02,10.0,SSE,10.4,-,N/A,,Mostly Cloudy,150,2013-04-22 14:53:00
11:53 AM,84.0,72.0,67,30.04,10.0,ESE,9.2,-,N/A,,Mostly Cloudy,110,2013-04-22 15:53:00
1:53 PM,81.0,71.1,72,30.00,10.0,SSE,4.6,-,N/A,,Mostly Cloudy,150,2013-04-22 17:53:00
2:53 PM,81.0,70.0,69,29.97,10.0,ESE,6.9,-,N/A,,Mostly Cloudy,120,2013-04-22 18:53:00
3:53 PM,82.0,70.0,67,29.95,10.0,East,3.5,-,N/A,,Mostly Cloudy,90,2013-04-22 19:53:00
4:53 PM,82.0,69.1,65,29.93,10.0,Variable,3.5,-,N/A,,Scattered Clouds,0,2013-04-22 20:53:00
5:53 PM,80.1,70.0,71,29.94,10.0,SSW,3.5,-,N/A,,Scattered Clouds,200,2013-04-22 21:53:00
6:53 PM,82.0,70.0,67,29.95,10.0,Calm,Calm,-,N/A,,Mostly Cloudy,0,2013-04-22 22:53:00
7:53 PM,80.1,70.0,71,29.96,10.0,North,6.9,-,N/A,,Scattered Clouds,350,2013-04-22 23:53:00
8:53 PM,79.0,72.0,79,29.99,10.0,North,4.6,-,N/A,,Scattered Clouds,360,2013-04-23 00:53:00
9:53 PM,78.1,71.1,79,30.00,10.0,NNE,6.9,-,N/A,,Scattered Clouds,20,2013-04-23 01:53:00
10:53 PM,78.1,71.1,79,30.01,10.0,North,9.2,-,N/A,,Clear,10,2013-04-23 02:53:00
11:41 PM,78.8,71.6,78,30.01,10.0,NNE,10.4,-,N/A,,Mostly Cloudy,20,2013-04-23 03:41:00
11:53 PM,78.1,70.0,76,30.01,10.0,NNE,11.5,-,N/A,,Mostly Cloudy,20,2013-04-23 03:53:00